Regional Weather Roundup
Issued by NWS Columbia, SC

Home | Current Version | Previous Version | Text Only | Print | Product List | Glossary On
Versions: 1 2 3 4 5 6 7 8 9 10 11 12 13 14 15 16 17 18 19 20 21 22 23 24 25 26 27 28 29 30 31 32 33 34 35 36 37 38 39 40 41 42 43 44 45 46 47 48 49 50
000
ASUS42 KCAE 310810
RWRCAE
REGIONAL WEATHER ROUNDUP
NATIONAL WEATHER SERVICE COLUMBIA SC
400 AM EDT FRI JUL 31 2015

NOTE: "FAIR" INDICATES FEW OR NO CLOUDS BELOW 12,000 FEET WITH NO
SIGNIFICANT WEATHER AND/OR OBSTRUCTIONS TO VISIBILITY.

NOT ALL STATIONS ARE QUALITY CONTROLLED BY THE NATIONAL
WEATHER SERVICE. USE DATA WITH CAUTION...ESPECIALLY
DEWPOINT OBSERVATIONS.

SCZ001>056-GAZ040-063>065-077-310900-
...UPSTATE SOUTH CAROLINA...

CITY           SKY/WX    TMP DP  RH WIND       PRES   REMARKS
ANDERSON       PTCLDY    79  69  71 NE8       29.94R
SPARTANBURG      N/A     79  70  73 N5        29.96R
CLEMSON        CLEAR     81  71  71 E3        29.96S
GREENVILLE     CLEAR     79  66  64 NE8       29.97R
GREENWOOD      PTCLDY    78  72  81 N6        29.94R
GREER          CLEAR     77  68  73 NE6       29.96R
ROCK HILL      MOCLDY    75  71  87 N7        29.95R
CHESTER        MOSUNNY   77  73  88 N8        29.94S
LAURENS        SUNNY     77  75  94 NE7       29.94R


...CENTRAL SOUTH CAROLINA...

CITY           SKY/WX    TMP DP  RH WIND       PRES   REMARKS
COLUMBIA APT   PTCLDY    80  73  79 CALM      29.88F
COLUMBIA OWENS PTCLDY    79  75  87 CALM      29.90F
DARLINGTON     PTCLDY    79  72  78 N5        29.90S
FLORENCE       PTCLDY    80  73  79 NW7       29.88S
MCENTIRE ANGB  PTCLDY    76  74  94 CALM      29.89S
ORANGEBURG     CLEAR     76  73  91 CALM      29.89F
SUMTER SHAW    PTCLDY    77  73  88 W1        29.87S
NEWBERRY       MOSUNNY   73  72  94 N3        29.94S
AIKEN          FAIR      75  72  88 CALM      29.94F
BARNWELL       FAIR      79  77  94 SW3       29.89F
MANNING        FAIR      77  73  88 SW3       29.87F
CAMDEN         FAIR      77  75  94 CALM      29.90S
LANCASTER      MOSUNNY   75  75 100 N3        29.93S
WINNSBORO      MOSUNNY   79  73  83 NW8       29.91R


...EASTERN AND COASTAL SOUTH CAROLINA...

CITY           SKY/WX    TMP DP  RH WIND       PRES   REMARKS
MYRTLE BEACH   CLOUDY    81  72  74 W5        29.88S
N MYRTLE BCH   PTCLDY    79  73  82 W5        29.86S
CONWAY         CLOUDY    79  75  89 CALM      29.86F
MARION         FAIR      77  77 100 CALM      29.87S FOG
HARTSVILLE     FAIR      77  72  83 CALM      29.89S
FLORENCE       PTCLDY    80  73  79 NW7       29.88S
DARLINGTON     PTCLDY    79  72  78 N5        29.90S
CHARLESTON APT PTCLDY    79  73  82 SW7       29.88F
MOUNT PLEASANT   N/A     79  75  89 S6        29.89S
WALTERBORO     SUNNY     79  73  83 SW3       29.90S
BEAUFORT       MOCLDY    79  76  90 SW6       29.88F


...EASTERN GEORGIA...

CITY           SKY/WX    TMP DP  RH WIND       PRES   REMARKS
AUGUSTA BUSH F CLEAR     75  74  96 CALM      29.88F FOG
AUGUSTA DANIEL PTCLDY    80  73  79 NW6       29.91S
THOMSON        CLEAR     77  76  98 CALM      29.95S
WASHINGTON     FAIR      81  81 100 NW3       29.91S
CLAXTON        CLOUDY    79  77  94 CALM      29.90S
SYLVANIA       PTSUNNY   79  77  94 CALM      29.90S
STATESBORO     PTCLDY    78  32  18 CALM      29.90R
SAVANNAH       MOCLDY    79  75  87 CALM      29.90F


...SOUTHERN NORTH CAROLINA...

CITY           SKY/WX    TMP DP  RH WIND       PRES   REMARKS
CHARLOTTE      PTCLDY    74  64  71 N9        29.96R
MONROE         MOCLDY    77  72  84 N8        29.94S
WADESBORO      CLOUDY    81  67  63 N6        29.92R
ROCKINGHAM     PTSUNNY   79  72  79 N8        29.91S
RUTHERFORDTON  MOCLDY    76  64  66 N7        29.99S
ASHEVILLE      PTCLDY    72  61  68 N14       30.06S

$$


USA.gov is the U.S. government's official web portal to all federal, state and local government web resources and services.